RJA233 LDZA-VQPR

Flight info

Callsign RJA233
Flight time 7h 52m
Altitude 39000
Route MOSAV DCT PEROT DCT DIRER DCT BULEN L744 UDROS UM859 KARDE UN644 ROLIN N644 LAGAS M747 SUBUT T923 ERLEV M11 RODAR A909 NINOP B475 DAVET P173 TAPIS L509 LAJAK G796 HANGU L509 SULOM A466 ASARI L509 GUGIP B345 KEVOD J71 IRPAX Z13 RUKNI Q18 BGD G348 SUBSU SUBSU1
Aircraft A20N/M-SDE2E3FGHIRWXY/LB1

Departure

Time 2026-04-29 00:05
Airport Zagreb Franjo Tuđman International Airport (LDZA)

Arrival

Time 2026-04-29 07:57
Airport Paro International Airport (VQPR)
Time Latitude Longitude Altitude Speed Heading
2026-04-28 23:41 45.73526 16.06245 357 ft 0 kts 134°
2026-04-28 23:55 45.73531 16.06238 358 ft 2 kts 131°
2026-04-28 23:56 45.73541 16.06222 358 ft 2 kts 135°
2026-04-28 23:56 45.73554 16.06210 358 ft 2 kts 163°
2026-04-28 23:56 45.73568 16.06208 358 ft 2 kts 186°
2026-04-28 23:56 45.73583 16.06213 358 ft 2 kts 210°
2026-04-28 23:57 45.73591 16.06221 358 ft 0 kts 225°
2026-04-28 23:57 45.73595 16.06229 358 ft 0 kts 227°
2026-04-28 23:59 45.73594 16.06227 358 ft 0 kts 228°
2026-04-28 23:59 45.73589 16.06218 358 ft 1 kts 229°
2026-04-28 23:59 45.73578 16.06200 358 ft 2 kts 229°
2026-04-28 23:59 45.73563 16.06176 358 ft 3 kts 229°
2026-04-29 00:00 45.73543 16.06143 358 ft 4 kts 229°
2026-04-29 00:00 45.73518 16.06102 358 ft 5 kts 229°
2026-04-29 00:00 45.73488 16.06054 358 ft 7 kts 228°
2026-04-29 00:00 45.73450 16.05996 359 ft 9 kts 226°
2026-04-29 00:01 45.73402 16.05923 359 ft 11 kts 226°
2026-04-29 00:01 45.73344 16.05836 359 ft 12 kts 226°
2026-04-29 00:01 45.73279 16.05736 359 ft 14 kts 228°
2026-04-29 00:01 45.73212 16.05628 359 ft 14 kts 227°
2026-04-29 00:02 45.73142 16.05520 359 ft 15 kts 228°
2026-04-29 00:02 45.73095 16.05391 360 ft 15 kts 275°
2026-04-29 00:02 45.73137 16.05279 360 ft 9 kts 307°
2026-04-29 00:02 45.73201 16.05250 359 ft 10 kts
2026-04-29 00:03 45.73253 16.05297 359 ft 0 kts 47°
2026-04-29 00:04 45.73255 16.05300 359 ft 3 kts 47°
2026-04-29 00:04 45.73462 16.05616 359 ft 83 kts 47°
2026-04-29 00:04 45.74020 16.06458 357 ft 147 kts 49°
2026-04-29 00:04 45.74837 16.07685 654 ft 178 kts 45°
2026-04-29 00:05 45.75646 16.08915 1482 ft 173 kts 50°
2026-04-29 00:05 45.76270 16.10347 2255 ft 171 kts 71°
2026-04-29 00:05 45.76312 16.12076 2728 ft 186 kts 98°
2026-04-29 00:05 45.76004 16.13960 3125 ft 207 kts 103°
2026-04-29 00:06 45.75617 16.16071 3589 ft 227 kts 103°
2026-04-29 00:06 45.75236 16.18290 4241 ft 237 kts 102°
2026-04-29 00:06 45.74867 16.20594 5053 ft 241 kts 101°
2026-04-29 00:06 45.74510 16.22908 5855 ft 245 kts 100°
2026-04-29 00:07 45.74149 16.25310 6549 ft 249 kts 100°
2026-04-29 00:07 45.73790 16.27729 6960 ft 251 kts 100°
2026-04-29 00:07 45.73308 16.30161 7129 ft 255 kts 115°
2026-04-29 00:07 45.72284 16.32205 7137 ft 256 kts 134°
2026-04-29 00:08 45.70977 16.33947 7131 ft 256 kts 136°
2026-04-29 00:08 45.69647 16.35651 7123 ft 257 kts 136°
2026-04-29 00:08 45.68344 16.37400 7136 ft 260 kts 129°
2026-04-29 00:08 45.67473 16.39709 7367 ft 275 kts 106°
2026-04-29 00:09 45.66962 16.42380 8032 ft 284 kts 103°
2026-04-29 00:09 45.66551 16.45108 8801 ft 288 kts 98°
2026-04-29 00:09 45.66285 16.47960 9556 ft 293 kts 97°
2026-04-29 00:09 45.66045 16.50876 10285 ft 298 kts 96°
2026-04-29 00:10 45.65796 16.53843 10812 ft 311 kts 97°
2026-04-29 00:10 45.65520 16.56996 11176 ft 329 kts 97°
2026-04-29 00:10 45.65221 16.60313 11502 ft 347 kts 97°
2026-04-29 00:10 45.64899 16.63805 11820 ft 364 kts 97°
2026-04-29 00:11 45.64555 16.67506 12125 ft 381 kts 98°
2026-04-29 00:11 45.64199 16.71291 12636 ft 389 kts 98°
2026-04-29 00:11 45.63472 16.78974 13932 ft 397 kts 98°
2026-04-29 00:12 45.63096 16.82910 14534 ft 402 kts 98°
2026-04-29 00:12 45.62715 16.86876 15091 ft 407 kts 98°
2026-04-29 00:12 45.62325 16.90906 15641 ft 412 kts 98°
2026-04-29 00:12 45.61934 16.94945 16177 ft 417 kts 98°
2026-04-29 00:13 45.61533 16.99075 16703 ft 422 kts 98°
2026-04-29 00:13 45.61129 17.03228 17179 ft 428 kts 98°
2026-04-29 00:13 45.60717 17.07445 17670 ft 433 kts 97°
2026-04-29 00:13 45.60300 17.11700 18162 ft 438 kts 97°
2026-04-29 00:14 45.59874 17.16030 18636 ft 443 kts 97°
2026-04-29 00:14 45.59442 17.20397 19115 ft 448 kts 97°
2026-04-29 00:14 45.59007 17.24773 19618 ft 451 kts 97°
2026-04-29 00:14 45.58562 17.29232 20118 ft 455 kts 97°
2026-04-29 00:15 45.58114 17.33715 20622 ft 458 kts 96°
2026-04-29 00:15 45.57664 17.38185 21132 ft 460 kts 96°
2026-04-29 00:15 45.57211 17.42681 21586 ft 463 kts 96°
2026-04-29 00:15 45.56747 17.47258 22010 ft 468 kts 96°
2026-04-29 00:16 45.56286 17.51807 22444 ft 471 kts 96°
2026-04-29 00:16 45.55812 17.56453 22872 ft 474 kts 96°
2026-04-29 00:16 45.55332 17.61137 23300 ft 478 kts 96°
2026-04-29 00:16 45.54853 17.65799 23699 ft 481 kts 96°
2026-04-29 00:17 45.54369 17.70493 24079 ft 485 kts 96°
2026-04-29 00:17 45.53870 17.75310 24457 ft 488 kts 96°
2026-04-29 00:17 45.53371 17.80105 24821 ft 491 kts 96°
2026-04-29 00:17 45.52871 17.84880 25212 ft 494 kts 96°
2026-04-29 00:18 45.52355 17.89775 25542 ft 497 kts 96°
2026-04-29 00:18 45.51840 17.94653 25868 ft 501 kts 96°
2026-04-29 00:18 45.51324 17.99525 26191 ft 503 kts 96°
2026-04-29 00:18 45.50799 18.04451 26502 ft 506 kts 96°
2026-04-29 00:19 45.50260 18.09493 26801 ft 509 kts 96°
2026-04-29 00:19 45.49721 18.14507 27093 ft 511 kts 96°
2026-04-29 00:19 45.49182 18.19508 27450 ft 512 kts 96°
2026-04-29 00:19 45.48640 18.24509 27837 ft 512 kts 96°
2026-04-29 00:20 45.48100 18.29477 28217 ft 512 kts 96°
2026-04-29 00:20 45.47554 18.34464 28592 ft 511 kts 96°
2026-04-29 00:20 45.47007 18.39454 28979 ft 511 kts 96°
2026-04-29 00:21 45.46675 18.42481 29205 ft 511 kts 96°
2026-04-29 00:21 45.46125 18.47457 29574 ft 511 kts 96°
2026-04-29 00:21 45.45569 18.52462 29930 ft 512 kts 96°
2026-04-29 00:21 45.45013 18.57462 30288 ft 511 kts 96°
2026-04-29 00:22 45.44458 18.62420 30677 ft 511 kts 96°
2026-04-29 00:22 45.43895 18.67435 31042 ft 510 kts 96°
2026-04-29 00:22 45.43341 18.72372 31401 ft 510 kts 96°
2026-04-29 00:22 45.42775 18.77364 31748 ft 509 kts 96°
2026-04-29 00:23 45.42210 18.82337 32070 ft 508 kts 96°
2026-04-29 00:23 45.41650 18.87255 32399 ft 508 kts 96°
2026-04-29 00:23 45.41087 18.92185 32724 ft 507 kts 96°
2026-04-29 00:23 45.40520 18.97107 33039 ft 506 kts 96°
2026-04-29 00:24 45.39910 19.02026 33332 ft 506 kts 99°
2026-04-29 00:24 45.39160 19.06905 33627 ft 506 kts 100°
2026-04-29 00:24 45.38377 19.11766 33905 ft 505 kts 100°
2026-04-29 00:24 45.37575 19.16666 34163 ft 505 kts 100°
2026-04-29 00:25 45.36783 19.21515 34418 ft 504 kts 100°
2026-04-29 00:25 45.35999 19.26307 34649 ft 504 kts 100°
2026-04-29 00:25 45.35204 19.31165 34882 ft 504 kts 100°
2026-04-29 00:25 45.34416 19.35974 35080 ft 503 kts 100°
2026-04-29 00:26 45.33620 19.40823 35266 ft 503 kts 100°
2026-04-29 00:26 45.32826 19.45654 35451 ft 503 kts 100°
2026-04-29 00:26 45.32036 19.50449 35620 ft 503 kts 100°
2026-04-29 00:26 45.31241 19.55266 35778 ft 503 kts 100°
2026-04-29 00:27 45.30438 19.60108 35936 ft 503 kts 100°
2026-04-29 00:27 45.29633 19.64953 36093 ft 504 kts 101°
2026-04-29 00:27 45.28831 19.69765 36229 ft 503 kts 101°
2026-04-29 00:27 45.28023 19.74598 36363 ft 504 kts 101°
2026-04-29 00:28 45.27211 19.79433 36482 ft 504 kts 101°
2026-04-29 00:28 45.26400 19.84266 36591 ft 505 kts 101°
2026-04-29 00:28 45.25589 19.89069 36697 ft 505 kts 101°
2026-04-29 00:28 45.24774 19.93892 36866 ft 505 kts 101°
2026-04-29 00:29 45.23953 19.98741 37014 ft 505 kts 101°
2026-04-29 00:29 45.23130 20.03576 37162 ft 505 kts 102°
2026-04-29 00:29 45.22307 20.08404 37325 ft 505 kts 101°
2026-04-29 00:29 45.21482 20.13227 37458 ft 505 kts 102°
2026-04-29 00:30 45.20663 20.18009 37559 ft 505 kts 101°
2026-04-29 00:30 45.18997 20.27688 37724 ft 506 kts 101°
2026-04-29 00:31 45.17318 20.37391 37910 ft 507 kts 102°
2026-04-29 00:31 45.15643 20.47013 38062 ft 508 kts 102°
2026-04-29 00:32 45.13949 20.56697 38203 ft 508 kts 102°
2026-04-29 00:32 45.12237 20.66426 38368 ft 509 kts 102°
2026-04-29 00:33 45.10525 20.76113 38415 ft 510 kts 102°
2026-04-29 00:33 45.08792 20.85860 38477 ft 511 kts 102°
2026-04-29 00:34 45.07056 20.95571 38568 ft 512 kts 102°
2026-04-29 00:34 45.05315 21.05270 38665 ft 512 kts 103°
2026-04-29 00:35 45.03553 21.15020 38739 ft 513 kts 102°
2026-04-29 00:35 45.01787 21.24745 38828 ft 513 kts 102°
2026-04-29 00:36 45.00008 21.34484 38953 ft 513 kts 102°
2026-04-29 00:36 44.98033 21.44118 39026 ft 514 kts 108°
2026-04-29 00:37 44.95611 21.53570 39088 ft 515 kts 109°
2026-04-29 00:37 44.93136 21.63063 39119 ft 516 kts 109°
2026-04-29 00:38 44.90673 21.72539 39122 ft 518 kts 109°
2026-04-29 00:38 44.88184 21.82100 39125 ft 518 kts 109°
2026-04-29 00:39 44.85703 21.91587 39127 ft 519 kts 109°
2026-04-29 00:39 44.83199 22.01134 39103 ft 519 kts 109°
2026-04-29 00:40 44.80696 22.10644 39104 ft 520 kts 109°
2026-04-29 00:40 44.78179 22.20169 39115 ft 520 kts 109°
2026-04-29 00:41 44.75663 22.29655 39111 ft 521 kts 109°
2026-04-29 00:41 44.73119 22.39195 39092 ft 521 kts 109°
2026-04-29 00:42 44.70567 22.48727 39092 ft 522 kts 109°
2026-04-29 00:42 44.68022 22.58200 39095 ft 522 kts 109°
2026-04-29 00:43 44.65440 22.67778 39098 ft 523 kts 110°
2026-04-29 00:43 44.62870 22.77269 39092 ft 523 kts 110°
2026-04-29 00:44 44.60284 22.86778 39091 ft 523 kts 110°
2026-04-29 00:44 44.57682 22.96314 39102 ft 523 kts 110°
2026-04-29 00:45 44.55096 23.05754 39086 ft 523 kts 110°
2026-04-29 00:45 44.52487 23.15236 39081 ft 523 kts 110°
2026-04-29 00:46 44.49878 23.24688 39086 ft 523 kts 110°
2026-04-29 00:46 44.47248 23.34176 39087 ft 523 kts 110°
2026-04-29 00:47 44.44632 23.43573 39081 ft 523 kts 110°
2026-04-29 00:47 44.41979 23.53071 39079 ft 523 kts 110°
2026-04-29 00:48 44.39339 23.62483 39084 ft 523 kts 110°
2026-04-29 00:48 44.36670 23.71969 39096 ft 522 kts 111°
2026-04-29 00:49 44.34017 23.81356 39092 ft 522 kts 111°
2026-04-29 00:49 44.31346 23.90778 39095 ft 522 kts 111°
2026-04-29 00:50 44.28678 24.00143 39085 ft 522 kts 111°
2026-04-29 00:50 44.25990 24.09546 39084 ft 522 kts 111°
2026-04-29 00:51 44.23315 24.18871 39087 ft 522 kts 111°
2026-04-29 00:51 44.20611 24.28257 39082 ft 521 kts 112°
2026-04-29 00:52 44.17926 24.37547 39067 ft 521 kts 111°
2026-04-29 00:52 44.15215 24.46891 39086 ft 521 kts 112°
2026-04-29 00:53 44.12518 24.56157 39070 ft 520 kts 111°
2026-04-29 00:53 44.09786 24.65499 39080 ft 520 kts 112°
2026-04-29 00:54 44.07060 24.74799 39085 ft 519 kts 112°
2026-04-29 00:54 44.04333 24.84053 39089 ft 519 kts 112°
2026-04-29 00:55 44.01605 24.93288 39076 ft 519 kts 113°
2026-04-29 00:55 43.98851 25.02568 39090 ft 519 kts 113°
2026-04-29 00:56 43.96111 25.11781 39152 ft 519 kts 113°
2026-04-29 00:56 43.93363 25.20980 39119 ft 519 kts 113°
2026-04-29 00:57 43.90597 25.30192 39151 ft 520 kts 112°
2026-04-29 00:57 43.87808 25.39461 39114 ft 519 kts 112°
2026-04-29 00:58 43.85023 25.48689 39110 ft 519 kts 113°
2026-04-29 00:58 43.82250 25.57847 39143 ft 519 kts 113°
2026-04-29 00:59 43.79453 25.67048 39126 ft 518 kts 114°
2026-04-29 00:59 43.76669 25.76167 39129 ft 518 kts 114°
2026-04-29 01:00 43.74017 25.85433 39111 ft 518 kts 109°
2026-04-29 01:00 43.71656 25.94824 39117 ft 518 kts 109°
2026-04-29 01:01 43.69303 26.04209 39113 ft 519 kts 109°
2026-04-29 01:01 43.66931 26.13593 39121 ft 519 kts 109°
2026-04-29 01:02 43.64549 26.22968 39148 ft 519 kts 109°
2026-04-29 01:02 43.62154 26.32350 39117 ft 519 kts 109°
2026-04-29 01:03 43.59764 26.41671 39132 ft 520 kts 109°
2026-04-29 01:03 43.57349 26.51054 39133 ft 519 kts 109°
2026-04-29 01:04 43.54942 26.60375 39133 ft 520 kts 109°
2026-04-29 01:04 43.52517 26.69732 39136 ft 519 kts 110°
2026-04-29 01:05 43.50092 26.79051 39103 ft 519 kts 110°
2026-04-29 01:05 43.47651 26.88385 39145 ft 519 kts 110°
2026-04-29 01:06 43.45229 26.97729 39148 ft 519 kts 109°
2026-04-29 01:06 43.42833 27.07015 39121 ft 520 kts 109°
2026-04-29 01:07 43.40401 27.16386 39154 ft 520 kts 109°
2026-04-29 01:07 43.37978 27.25650 39133 ft 520 kts 109°
2026-04-29 01:08 43.35523 27.34971 39152 ft 520 kts 109°
2026-04-29 01:08 43.33064 27.44282 39124 ft 520 kts 109°
2026-04-29 01:09 43.30587 27.53638 39113 ft 520 kts 109°
2026-04-29 01:09 43.28130 27.62877 39139 ft 520 kts 109°
2026-04-29 01:10 43.25633 27.72231 39126 ft 521 kts 110°
2026-04-29 01:10 43.23226 27.81553 39128 ft 520 kts 107°
2026-04-29 01:11 43.21410 27.91133 39136 ft 520 kts 102°
2026-04-29 01:11 43.19776 28.00740 39158 ft 520 kts 102°
2026-04-29 01:12 43.18128 28.10316 39153 ft 520 kts 102°
2026-04-29 01:12 43.16456 28.19899 39149 ft 520 kts 102°
2026-04-29 01:13 43.14766 28.29508 39173 ft 520 kts 102°
2026-04-29 01:13 43.13067 28.39127 39169 ft 521 kts 102°
2026-04-29 01:14 43.11364 28.48710 39172 ft 521 kts 102°
2026-04-29 01:14 43.09660 28.58257 39145 ft 520 kts 102°
2026-04-29 01:15 43.07941 28.67869 39148 ft 521 kts 103°
2026-04-29 01:15 43.06216 28.77450 39167 ft 521 kts 103°
2026-04-29 01:16 43.04547 28.87027 39173 ft 521 kts 102°
2026-04-29 01:16 43.02931 28.96612 39167 ft 521 kts 102°
2026-04-29 01:17 43.01288 29.06274 39157 ft 521 kts 102°
2026-04-29 01:17 42.99640 29.15873 39161 ft 520 kts 102°
2026-04-29 01:18 42.97988 29.25451 39174 ft 520 kts 102°
2026-04-29 01:18 42.95504 29.39721 39163 ft 519 kts 102°
2026-04-29 01:19 42.93825 29.49314 39165 ft 519 kts 102°
2026-04-29 01:19 42.92145 29.58857 39164 ft 519 kts 102°
2026-04-29 01:20 42.90462 29.68377 39168 ft 518 kts 103°
2026-04-29 01:20 42.88769 29.77890 39169 ft 517 kts 103°
2026-04-29 01:21 42.87065 29.87412 39166 ft 516 kts 103°
2026-04-29 01:21 42.85368 29.96861 39158 ft 516 kts 102°
2026-04-29 01:22 42.83662 30.06305 39171 ft 515 kts 103°
2026-04-29 01:22 42.81958 30.15704 39167 ft 515 kts 103°
2026-04-29 01:23 42.80231 30.25169 39167 ft 514 kts 103°
2026-04-29 01:23 42.78507 30.34573 39170 ft 514 kts 103°
2026-04-29 01:24 42.76780 30.43951 39173 ft 514 kts 103°
2026-04-29 01:24 42.75041 30.53335 39174 ft 514 kts 103°
2026-04-29 01:25 42.73537 30.62791 39171 ft 513 kts 97°
2026-04-29 01:25 42.72549 30.72373 39168 ft 513 kts 96°
2026-04-29 01:26 42.71602 30.81901 39172 ft 512 kts 96°
2026-04-29 01:26 42.70633 30.91458 39167 ft 512 kts 96°
2026-04-29 01:27 42.69647 31.01026 39169 ft 512 kts 97°
2026-04-29 01:27 42.68655 31.10530 39165 ft 510 kts 97°
2026-04-29 01:28 42.67657 31.20018 39159 ft 510 kts 97°
2026-04-29 01:28 42.66651 31.29531 39157 ft 509 kts 97°
2026-04-29 01:29 42.65635 31.39037 39167 ft 509 kts 97°
2026-04-29 01:29 42.64623 31.48458 39158 ft 509 kts 97°
2026-04-29 01:30 42.63588 31.57984 39142 ft 509 kts 97°
2026-04-29 01:30 42.62552 31.67456 39149 ft 509 kts 97°
2026-04-29 01:31 42.61510 31.76917 39134 ft 508 kts 97°
2026-04-29 01:31 42.60466 31.86325 39164 ft 508 kts 97°
2026-04-29 01:32 42.59409 31.95773 39137 ft 508 kts 98°
2026-04-29 01:32 42.58352 32.05203 39149 ft 508 kts 97°
2026-04-29 01:33 42.57287 32.14633 39151 ft 507 kts 97°
2026-04-29 01:33 42.56206 32.24055 39143 ft 507 kts 98°
2026-04-29 01:34 42.55123 32.33436 39161 ft 506 kts 98°
2026-04-29 01:34 42.54034 32.42818 39158 ft 506 kts 98°
2026-04-29 01:35 42.52931 32.52222 39161 ft 506 kts 98°
2026-04-29 01:35 42.51828 32.61567 39148 ft 506 kts 98°
2026-04-29 01:36 42.50710 32.70983 39156 ft 505 kts 99°
2026-04-29 01:36 42.49587 32.80363 39154 ft 505 kts 99°
2026-04-29 01:37 42.48461 32.89711 39151 ft 505 kts 99°
2026-04-29 01:37 42.47327 32.99056 39154 ft 504 kts 99°
2026-04-29 01:38 42.46189 33.08361 39151 ft 503 kts 99°
2026-04-29 01:38 42.45049 33.17625 39144 ft 503 kts 99°
2026-04-29 01:39 42.43887 33.26986 39129 ft 503 kts 99°
2026-04-29 01:39 42.42724 33.36279 39158 ft 503 kts 99°
2026-04-29 01:40 42.41553 33.45580 39142 ft 504 kts 99°
2026-04-29 01:40 42.40376 33.54871 39158 ft 504 kts 99°
2026-04-29 01:41 42.39188 33.64189 39139 ft 504 kts 99°
2026-04-29 01:41 42.37999 33.73479 39153 ft 504 kts 100°
2026-04-29 01:42 42.36798 33.82784 39151 ft 504 kts 100°
2026-04-29 01:42 42.35590 33.92066 39156 ft 504 kts 100°
2026-04-29 01:43 42.34375 34.01379 39154 ft 503 kts 100°
2026-04-29 01:43 42.33157 34.10658 39154 ft 503 kts 100°
2026-04-29 01:44 42.31936 34.19907 39153 ft 502 kts 100°
2026-04-29 01:44 42.30714 34.29118 39154 ft 502 kts 100°
2026-04-29 01:45 42.29469 34.38414 39145 ft 502 kts 100°
2026-04-29 01:45 42.28225 34.47634 39153 ft 503 kts 100°
2026-04-29 01:46 42.26971 34.56864 39158 ft 503 kts 100°
2026-04-29 01:46 42.25706 34.66141 39148 ft 502 kts 101°
2026-04-29 01:47 42.24442 34.75348 39149 ft 502 kts 101°
2026-04-29 01:47 42.23160 34.84605 39143 ft 501 kts 101°
2026-04-29 01:48 42.21880 34.93762 39150 ft 501 kts 101°
2026-04-29 01:48 42.20591 35.02938 39150 ft 500 kts 101°
2026-04-29 01:49 42.19289 35.12162 39152 ft 499 kts 101°
2026-04-29 01:49 42.17989 35.21317 39153 ft 500 kts 101°
2026-04-29 01:50 42.16685 35.30450 39153 ft 500 kts 101°
2026-04-29 01:50 42.15366 35.39632 39154 ft 500 kts 101°
2026-04-29 01:51 42.14043 35.48775 39154 ft 499 kts 101°
2026-04-29 01:51 42.12718 35.57896 39154 ft 499 kts 101°
2026-04-29 01:52 42.11381 35.67056 39151 ft 498 kts 102°
2026-04-29 01:52 42.10052 35.76111 39152 ft 497 kts 102°
2026-04-29 01:53 42.08703 35.85238 39151 ft 497 kts 102°
2026-04-29 01:53 42.07354 35.94326 39150 ft 496 kts 102°
2026-04-29 01:54 42.06002 36.03377 39150 ft 496 kts 102°
2026-04-29 01:54 42.04641 36.12434 39149 ft 496 kts 102°
2026-04-29 01:55 42.03278 36.21458 39150 ft 496 kts 102°
2026-04-29 01:55 42.01903 36.30515 39149 ft 496 kts 102°
2026-04-29 01:56 42.00517 36.39593 39149 ft 495 kts 103°
2026-04-29 01:56 41.99132 36.48609 39150 ft 495 kts 102°
2026-04-29 01:57 41.97739 36.57628 39149 ft 495 kts 103°
2026-04-29 01:57 41.96339 36.66646 39148 ft 495 kts 103°
2026-04-29 01:58 41.94934 36.75647 39149 ft 494 kts 103°
2026-04-29 01:58 41.93522 36.84645 39148 ft 494 kts 103°
2026-04-29 01:59 41.92104 36.93633 39150 ft 494 kts 103°
2026-04-29 01:59 41.90824 37.02610 39148 ft 495 kts 99°
2026-04-29 02:00 41.90228 37.11793 39146 ft 496 kts 92°
2026-04-29 02:00 41.90096 37.21023 39143 ft 496 kts 92°
2026-04-29 02:01 41.89978 37.30271 39144 ft 495 kts 92°
2026-04-29 02:01 41.89839 37.39510 39144 ft 496 kts 92°
2026-04-29 02:02 41.89688 37.48694 39143 ft 495 kts 92°
2026-04-29 02:02 41.89528 37.57898 39142 ft 495 kts 92°
2026-04-29 02:03 41.89360 37.67096 39142 ft 495 kts 93°
2026-04-29 02:03 41.89183 37.76310 39144 ft 495 kts 93°
2026-04-29 02:04 41.89000 37.85501 39141 ft 495 kts 93°
2026-04-29 02:04 41.88810 37.94688 39145 ft 495 kts 93°
2026-04-29 02:05 41.88611 38.03886 39141 ft 496 kts 93°
2026-04-29 02:05 41.88406 38.13115 39156 ft 495 kts 93°
2026-04-29 02:06 41.88194 38.22327 39153 ft 494 kts 93°
2026-04-29 02:06 41.87975 38.31485 39161 ft 494 kts 93°
2026-04-29 02:07 41.87748 38.40684 39157 ft 494 kts 93°
2026-04-29 02:07 41.87516 38.49797 39153 ft 494 kts 93°
2026-04-29 02:08 41.87274 38.58983 39155 ft 494 kts 93°
2026-04-29 02:08 41.87026 38.68161 39155 ft 494 kts 94°
2026-04-29 02:09 41.86770 38.77329 39155 ft 493 kts 94°
2026-04-29 02:09 41.86505 38.86499 39155 ft 494 kts 94°
2026-04-29 02:10 41.86235 38.95680 39159 ft 494 kts 94°
2026-04-29 02:10 41.85958 39.04846 39151 ft 493 kts 94°
2026-04-29 02:11 41.85674 39.13988 39149 ft 492 kts 94°
2026-04-29 02:11 41.85385 39.23124 39149 ft 493 kts 94°
2026-04-29 02:12 41.85086 39.32262 39149 ft 493 kts 94°
2026-04-29 02:12 41.84780 39.41434 39147 ft 493 kts 94°
2026-04-29 02:13 41.84466 39.50572 39147 ft 493 kts 94°
2026-04-29 02:13 41.84145 39.59730 39149 ft 494 kts 94°
2026-04-29 02:14 41.83817 39.68864 39146 ft 494 kts 95°
2026-04-29 02:14 41.83480 39.78108 39150 ft 494 kts 95°
2026-04-29 02:15 41.83138 39.87251 39149 ft 494 kts 95°
2026-04-29 02:15 41.82788 39.96407 39147 ft 495 kts 95°
2026-04-29 02:16 41.82431 40.05561 39143 ft 495 kts 95°
2026-04-29 02:16 41.82064 40.14790 39144 ft 494 kts 95°
2026-04-29 02:17 41.81691 40.23927 39144 ft 494 kts 95°
2026-04-29 02:17 41.81312 40.33063 39142 ft 494 kts 95°
2026-04-29 02:18 41.80924 40.42238 39142 ft 494 kts 95°
2026-04-29 02:18 41.80529 40.51409 39142 ft 495 kts 95°
2026-04-29 02:19 41.80127 40.60546 39143 ft 495 kts 95°
2026-04-29 02:19 41.79709 40.69749 39145 ft 496 kts 96°
2026-04-29 02:20 41.79257 40.78968 39142 ft 496 kts 96°
2026-04-29 02:20 41.78802 40.88147 39142 ft 496 kts 96°
2026-04-29 02:21 41.78341 40.97315 39146 ft 495 kts 96°
2026-04-29 02:21 41.77874 41.06469 39151 ft 495 kts 96°
2026-04-29 02:22 41.77398 41.15652 39155 ft 495 kts 96°
2026-04-29 02:22 41.76916 41.24814 39151 ft 495 kts 96°
2026-04-29 02:23 41.76426 41.33987 39150 ft 495 kts 96°
2026-04-29 02:23 41.75931 41.43139 39150 ft 496 kts 96°
2026-04-29 02:24 41.75425 41.52341 39143 ft 496 kts 96°
2026-04-29 02:25 41.74654 41.66119 39145 ft 496 kts 97°
2026-04-29 02:25 41.74130 41.75318 39139 ft 496 kts 97°
2026-04-29 02:26 41.73600 41.84500 39130 ft 497 kts 97°
2026-04-29 02:26 41.73064 41.93665 39127 ft 496 kts 97°
2026-04-29 02:27 41.72519 42.02853 39104 ft 496 kts 97°
2026-04-29 02:27 41.71970 42.11977 39099 ft 496 kts 97°
2026-04-29 02:28 41.71407 42.21141 39096 ft 496 kts 97°
2026-04-29 02:28 41.70838 42.30312 39099 ft 495 kts 97°
2026-04-29 02:29 41.70263 42.39465 39103 ft 495 kts 97°
2026-04-29 02:29 41.69682 42.48621 39098 ft 495 kts 97°
2026-04-29 02:30 41.69094 42.57752 39098 ft 495 kts 97°
2026-04-29 02:30 41.68499 42.66903 39095 ft 495 kts 98°
2026-04-29 02:31 41.67896 42.76078 39098 ft 494 kts 98°
2026-04-29 02:31 41.67286 42.85193 39092 ft 493 kts 98°
2026-04-29 02:32 41.66669 42.94284 39099 ft 493 kts 98°
2026-04-29 02:32 41.66043 43.03385 39097 ft 493 kts 98°
2026-04-29 02:33 41.65408 43.12521 39091 ft 493 kts 98°
2026-04-29 02:33 41.64772 43.21595 39092 ft 493 kts 98°
2026-04-29 02:34 41.64127 43.30671 39088 ft 493 kts 98°
2026-04-29 02:34 41.63476 43.39749 39088 ft 493 kts 98°
2026-04-29 02:35 41.62816 43.48844 39088 ft 494 kts 98°
2026-04-29 02:35 41.62148 43.57957 39072 ft 494 kts 98°
2026-04-29 02:36 41.61475 43.67074 39082 ft 494 kts 99°
2026-04-29 02:36 41.60793 43.76212 39079 ft 493 kts 99°
2026-04-29 02:37 41.60111 43.85256 39083 ft 493 kts 99°
2026-04-29 02:37 41.59420 43.94326 39080 ft 493 kts 99°
2026-04-29 02:38 41.58722 44.03419 39074 ft 492 kts 99°
2026-04-29 02:38 41.58016 44.12489 39082 ft 493 kts 99°
2026-04-29 02:39 41.57093 44.21483 39099 ft 491 kts 104°
2026-04-29 02:39 41.55436 44.30273 39100 ft 487 kts 111°
2026-04-29 02:40 41.53318 44.38829 39100 ft 487 kts 112°
2026-04-29 02:40 41.51185 44.47353 39109 ft 487 kts 112°
2026-04-29 02:41 41.49049 44.55912 39115 ft 488 kts 112°
2026-04-29 02:41 41.46908 44.64486 39122 ft 488 kts 112°
2026-04-29 02:42 41.44768 44.73030 39114 ft 487 kts 112°
2026-04-29 02:42 41.42627 44.81548 39124 ft 487 kts 112°
2026-04-29 02:43 41.40467 44.90114 39111 ft 487 kts 112°
2026-04-29 02:43 41.38316 44.98616 39118 ft 487 kts 112°
2026-04-29 02:44 41.36147 45.07155 39114 ft 488 kts 112°
2026-04-29 02:44 41.33975 45.15647 39107 ft 488 kts 113°
2026-04-29 02:45 41.31792 45.24151 39114 ft 489 kts 113°
2026-04-29 02:45 41.29584 45.32735 39100 ft 489 kts 113°
2026-04-29 02:46 41.27391 45.41231 39110 ft 489 kts 113°
2026-04-29 02:46 41.25184 45.49753 39111 ft 489 kts 112°
2026-04-29 02:47 41.22982 45.58232 39094 ft 489 kts 113°
2026-04-29 02:47 41.20752 45.66777 39112 ft 489 kts 114°
2026-04-29 02:48 41.18517 45.75265 39099 ft 488 kts 114°
2026-04-29 02:48 41.16281 45.83730 39101 ft 488 kts 114°
2026-04-29 02:49 41.14041 45.92197 39094 ft 489 kts 114°
2026-04-29 02:49 41.11790 46.00673 39100 ft 490 kts 114°
2026-04-29 02:50 41.09525 46.09175 39089 ft 490 kts 114°
2026-04-29 02:50 41.07267 46.17628 39102 ft 490 kts 114°
2026-04-29 02:51 41.04991 46.26109 39102 ft 489 kts 114°
2026-04-29 02:51 41.02723 46.34563 39125 ft 489 kts 114°
2026-04-29 02:52 41.00452 46.43064 39096 ft 489 kts 114°
2026-04-29 02:52 40.98189 46.51513 39106 ft 489 kts 114°
2026-04-29 02:53 40.95913 46.59978 39107 ft 490 kts 114°
2026-04-29 02:53 40.93621 46.68481 39102 ft 490 kts 114°
2026-04-29 02:54 40.91423 46.76923 39113 ft 492 kts 111°
2026-04-29 02:54 40.89798 46.85769 39105 ft 497 kts 104°
2026-04-29 02:55 40.88924 46.94783 39108 ft 500 kts 99°
2026-04-29 02:55 40.88287 47.03902 39108 ft 500 kts 99°
2026-04-29 02:56 40.87633 47.13024 39106 ft 500 kts 99°
2026-04-29 02:56 40.86959 47.22151 39093 ft 499 kts 99°
2026-04-29 02:57 40.86275 47.31259 39096 ft 500 kts 99°
2026-04-29 02:57 40.85583 47.40371 39103 ft 500 kts 99°
2026-04-29 02:58 40.84884 47.49470 39110 ft 501 kts 99°
2026-04-29 02:58 40.84267 47.58587 39107 ft 502 kts 98°
2026-04-29 02:59 40.83722 47.67788 39098 ft 503 kts 99°
2026-04-29 02:59 40.83165 47.76929 39101 ft 503 kts 99°
2026-04-29 03:00 40.82588 47.86119 39093 ft 503 kts 99°
2026-04-29 03:00 40.82004 47.95301 39102 ft 503 kts 99°
2026-04-29 03:01 40.81414 48.04436 39100 ft 503 kts 99°
2026-04-29 03:01 40.80814 48.13625 39119 ft 504 kts 99°
2026-04-29 03:02 40.80208 48.22774 39107 ft 503 kts 99°
2026-04-29 03:02 40.79594 48.31955 39109 ft 503 kts 99°
2026-04-29 03:03 40.78973 48.41109 39116 ft 503 kts 99°
2026-04-29 03:03 40.78346 48.50275 39123 ft 503 kts 99°
2026-04-29 03:04 40.77711 48.59427 39115 ft 504 kts 99°
2026-04-29 03:04 40.77066 48.68617 39117 ft 503 kts 100°
2026-04-29 03:05 40.76414 48.77799 39124 ft 503 kts 100°
2026-04-29 03:05 40.75759 48.86952 39116 ft 502 kts 100°
2026-04-29 03:06 40.75098 48.96059 39117 ft 502 kts 100°
2026-04-29 03:06 40.74429 49.05181 39116 ft 502 kts 100°
2026-04-29 03:07 40.73751 49.14338 39117 ft 502 kts 100°
2026-04-29 03:07 40.73060 49.23428 39130 ft 500 kts 101°
2026-04-29 03:08 40.72057 49.32439 39135 ft 499 kts 103°
2026-04-29 03:08 40.70974 49.41485 39147 ft 499 kts 103°
2026-04-29 03:09 40.69899 49.50470 39141 ft 499 kts 103°
2026-04-29 03:09 40.68814 49.59462 39146 ft 499 kts 103°
2026-04-29 03:10 40.67720 49.68467 39140 ft 498 kts 104°
2026-04-29 03:10 40.66629 49.77394 39142 ft 498 kts 104°
2026-04-29 03:11 40.65525 49.86387 39140 ft 497 kts 104°
2026-04-29 03:11 40.64421 49.95315 39139 ft 497 kts 104°
2026-04-29 03:12 40.63308 50.04244 39133 ft 497 kts 104°
2026-04-29 03:12 40.62183 50.13211 39127 ft 497 kts 104°
2026-04-29 03:13 40.61051 50.22187 39130 ft 498 kts 104°
2026-04-29 03:13 40.59916 50.31121 39127 ft 499 kts 104°
2026-04-29 03:14 40.58772 50.40081 39121 ft 499 kts 104°
2026-04-29 03:14 40.57621 50.49036 39122 ft 500 kts 104°
2026-04-29 03:15 40.56454 50.58059 39119 ft 501 kts 104°
2026-04-29 03:15 40.55282 50.67062 39114 ft 501 kts 104°
2026-04-29 03:16 40.54105 50.76056 39108 ft 500 kts 104°
2026-04-29 03:16 40.52927 50.85001 39111 ft 500 kts 104°
2026-04-29 03:17 40.51808 50.93978 39104 ft 503 kts 102°
2026-04-29 03:17 40.50968 51.03115 39121 ft 504 kts 101°
2026-04-29 03:18 40.50151 51.12221 39095 ft 503 kts 101°
2026-04-29 03:18 40.49320 51.21322 39109 ft 503 kts 101°
2026-04-29 03:19 40.48478 51.30424 39101 ft 504 kts 101°
2026-04-29 03:19 40.47628 51.39498 39092 ft 504 kts 101°
2026-04-29 03:20 40.46726 51.48608 39098 ft 502 kts 103°
2026-04-29 03:20 40.45284 51.57526 39097 ft 500 kts 108°
2026-04-29 03:21 40.43657 51.66331 39083 ft 499 kts 108°
2026-04-29 03:21 40.42030 51.75137 39069 ft 498 kts 108°
2026-04-29 03:22 40.40403 51.83928 39065 ft 497 kts 108°
2026-04-29 03:22 40.38774 51.92716 39047 ft 498 kts 108°
2026-04-29 03:23 40.37133 52.01538 39056 ft 498 kts 108°
2026-04-29 03:23 40.35492 52.10318 39062 ft 499 kts 108°
2026-04-29 03:24 40.33846 52.19088 39066 ft 497 kts 108°
2026-04-29 03:24 40.32189 52.27873 39065 ft 498 kts 108°
2026-04-29 03:25 40.30533 52.36628 39073 ft 497 kts 108°
2026-04-29 03:25 40.28872 52.45362 39071 ft 498 kts 108°
2026-04-29 03:26 40.27193 52.54147 39064 ft 498 kts 108°
2026-04-29 03:26 40.25516 52.62884 39066 ft 496 kts 108°
2026-04-29 03:27 40.23840 52.71581 39070 ft 496 kts 108°
2026-04-29 03:27 40.22150 52.80326 39073 ft 495 kts 108°
2026-04-29 03:28 40.20464 52.89018 39072 ft 495 kts 108°
2026-04-29 03:28 40.18772 52.97704 39075 ft 495 kts 108°
2026-04-29 03:29 40.17070 53.06397 39061 ft 497 kts 108°
2026-04-29 03:29 40.15358 53.15116 39059 ft 496 kts 108°
2026-04-29 03:30 40.13643 53.23807 39055 ft 494 kts 108°
2026-04-29 03:30 40.11930 53.32442 39053 ft 494 kts 108°
2026-04-29 03:31 40.09340 53.45441 39060 ft 495 kts 108°
2026-04-29 03:31 40.07605 53.54107 39059 ft 496 kts 108°
2026-04-29 03:32 40.05850 53.62830 39058 ft 496 kts 108°
2026-04-29 03:32 40.04101 53.71497 39058 ft 496 kts 109°
2026-04-29 03:33 40.02336 53.80190 39059 ft 497 kts 108°
2026-04-29 03:33 40.00574 53.88853 39062 ft 498 kts 109°
2026-04-29 03:34 39.98801 53.97520 39058 ft 498 kts 109°
2026-04-29 03:34 39.97012 54.06224 39067 ft 497 kts 109°
2026-04-29 03:35 39.95226 54.14887 39058 ft 497 kts 109°
2026-04-29 03:35 39.93430 54.23556 39073 ft 497 kts 109°
2026-04-29 03:36 39.91631 54.32222 39061 ft 498 kts 109°
2026-04-29 03:36 39.89830 54.40856 39063 ft 498 kts 108°
2026-04-29 03:37 39.88006 54.49536 39061 ft 498 kts 109°
2026-04-29 03:37 39.86166 54.58194 39063 ft 497 kts 109°
2026-04-29 03:38 39.84319 54.66871 39050 ft 497 kts 109°
2026-04-29 03:38 39.82476 54.75494 39058 ft 498 kts 109°
2026-04-29 03:39 39.80621 54.84166 39060 ft 498 kts 109°
2026-04-29 03:39 39.78778 54.92773 39064 ft 498 kts 109°
2026-04-29 03:40 39.76921 55.01425 39055 ft 498 kts 109°
2026-04-29 03:40 39.75058 55.10076 39059 ft 498 kts 109°
2026-04-29 03:41 39.73185 55.18731 39058 ft 500 kts 109°
2026-04-29 03:41 39.71305 55.27388 39065 ft 500 kts 109°
2026-04-29 03:42 39.69427 55.35990 39059 ft 500 kts 109°
2026-04-29 03:42 39.67517 55.44669 39058 ft 500 kts 109°
2026-04-29 03:43 39.65611 55.53284 39055 ft 501 kts 109°
2026-04-29 03:43 39.63684 55.61981 39061 ft 501 kts 109°
2026-04-29 03:44 39.61753 55.70659 39067 ft 501 kts 109°
2026-04-29 03:44 39.59820 55.79326 39065 ft 502 kts 110°
2026-04-29 03:45 39.57891 55.87935 39066 ft 501 kts 110°
2026-04-29 03:45 39.55943 55.96618 39063 ft 502 kts 109°
2026-04-29 03:46 39.54010 56.05257 39060 ft 503 kts 109°
2026-04-29 03:46 39.52056 56.13961 39064 ft 503 kts 109°
2026-04-29 03:47 39.50114 56.22585 39066 ft 503 kts 109°
2026-04-29 03:47 39.48151 56.31256 39061 ft 503 kts 109°
2026-04-29 03:48 39.46186 56.39913 39059 ft 504 kts 109°
2026-04-29 03:48 39.44216 56.48560 39061 ft 504 kts 109°
2026-04-29 03:49 39.42231 56.57232 39068 ft 504 kts 109°
2026-04-29 03:49 39.40238 56.65919 39062 ft 504 kts 110°
2026-04-29 03:50 39.38246 56.74569 39062 ft 505 kts 110°
2026-04-29 03:50 39.36214 56.83251 39065 ft 505 kts 111°
2026-04-29 03:51 39.34012 56.91834 39064 ft 504 kts 112°
2026-04-29 03:51 39.31788 57.00394 39065 ft 505 kts 112°
2026-04-29 03:52 39.29578 57.08929 39058 ft 506 kts 111°
2026-04-29 03:52 39.27353 57.17524 39059 ft 506 kts 111°
2026-04-29 03:53 39.25129 57.26089 39066 ft 506 kts 111°
2026-04-29 03:53 39.22898 57.34663 39066 ft 507 kts 111°
2026-04-29 03:54 39.20652 57.43266 39056 ft 507 kts 111°
2026-04-29 03:54 39.18399 57.51868 39060 ft 507 kts 111°
2026-04-29 03:55 39.16150 57.60411 39060 ft 508 kts 111°
2026-04-29 03:55 39.13883 57.68999 39063 ft 507 kts 112°
2026-04-29 03:56 39.11615 57.77564 39058 ft 507 kts 112°
2026-04-29 03:56 39.09340 57.86123 39056 ft 508 kts 112°
2026-04-29 03:57 39.07050 57.94710 39068 ft 509 kts 112°
2026-04-29 03:57 39.04752 58.03311 39061 ft 510 kts 112°
2026-04-29 03:58 39.02450 58.11892 39066 ft 510 kts 112°
2026-04-29 03:58 39.00139 58.20466 39064 ft 511 kts 112°
2026-04-29 03:59 38.97810 58.29087 39067 ft 512 kts 112°
2026-04-29 03:59 38.95480 58.37688 39055 ft 512 kts 112°
2026-04-29 04:00 38.93134 58.46317 39065 ft 512 kts 112°
2026-04-29 04:00 38.90800 58.54875 39066 ft 513 kts 111°
2026-04-29 04:01 38.88281 58.63463 39060 ft 511 kts 116°
2026-04-29 04:01 38.85211 58.71592 39060 ft 509 kts 120°
2026-04-29 04:02 38.82017 58.79682 39052 ft 509 kts 120°
2026-04-29 04:02 38.78835 58.87749 39052 ft 511 kts 120°
2026-04-29 04:03 38.75627 58.95891 39054 ft 511 kts 120°
2026-04-29 04:03 38.72450 59.03941 39044 ft 511 kts 120°
2026-04-29 04:04 38.69243 59.12047 39047 ft 511 kts 120°
2026-04-29 04:04 38.66031 59.20145 39040 ft 511 kts 120°
2026-04-29 04:05 38.62827 59.28202 39044 ft 511 kts 120°
2026-04-29 04:05 38.59592 59.36314 39041 ft 511 kts 120°
2026-04-29 04:06 38.56513 59.44443 39043 ft 512 kts 118°
2026-04-29 04:06 38.53480 59.52685 39040 ft 513 kts 117°
2026-04-29 04:07 38.50453 59.60868 39038 ft 513 kts 118°
2026-04-29 04:07 38.47391 59.69093 39041 ft 512 kts 118°
2026-04-29 04:08 38.44330 59.77274 39038 ft 512 kts 118°
2026-04-29 04:08 38.41262 59.85457 39028 ft 512 kts 118°
2026-04-29 04:09 38.38205 59.93585 39039 ft 511 kts 118°
2026-04-29 04:09 38.35136 60.01724 39023 ft 512 kts 118°
2026-04-29 04:10 38.32037 60.09917 39032 ft 512 kts 118°
2026-04-29 04:10 38.28960 60.18036 39025 ft 513 kts 118°
2026-04-29 04:11 38.25851 60.26214 39025 ft 514 kts 118°
2026-04-29 04:11 38.22752 60.34344 39031 ft 514 kts 118°
2026-04-29 04:12 38.19629 60.42514 39026 ft 515 kts 118°
2026-04-29 04:12 38.16507 60.50663 39026 ft 515 kts 118°
2026-04-29 04:13 38.13379 60.58805 39035 ft 516 kts 118°
2026-04-29 04:13 38.10212 60.67023 39030 ft 516 kts 119°
2026-04-29 04:14 38.07075 60.75144 39027 ft 517 kts 118°
2026-04-29 04:14 38.03915 60.83305 39022 ft 517 kts 119°
2026-04-29 04:15 38.00737 60.91488 39026 ft 518 kts 119°
2026-04-29 04:15 37.97551 60.99677 39019 ft 518 kts 119°
2026-04-29 04:16 37.94361 61.07847 39021 ft 519 kts 119°
2026-04-29 04:16 37.91184 61.15966 39023 ft 519 kts 119°
2026-04-29 04:17 37.87965 61.24165 39020 ft 518 kts 118°
2026-04-29 04:17 37.84770 61.32288 39022 ft 518 kts 118°
2026-04-29 04:18 37.81560 61.40427 39021 ft 519 kts 118°
2026-04-29 04:18 37.78360 61.48519 39016 ft 518 kts 119°
2026-04-29 04:19 37.75124 61.56685 39006 ft 518 kts 119°
2026-04-29 04:19 37.71899 61.64801 39018 ft 518 kts 118°
2026-04-29 04:20 37.68678 61.72890 39017 ft 519 kts 119°
2026-04-29 04:20 37.65448 61.80973 39013 ft 520 kts 119°
2026-04-29 04:21 37.62435 61.89289 39010 ft 521 kts 113°
2026-04-29 04:21 37.60192 61.97971 39016 ft 523 kts 107°
2026-04-29 04:22 37.58309 62.06810 39010 ft 524 kts 106°
2026-04-29 04:22 37.56424 62.15646 39021 ft 524 kts 107°
2026-04-29 04:23 37.54523 62.24446 39018 ft 524 kts 107°
2026-04-29 04:23 37.52605 62.33258 39017 ft 524 kts 107°
2026-04-29 04:24 37.50666 62.42121 39011 ft 523 kts 107°
2026-04-29 04:24 37.48735 62.50912 39016 ft 524 kts 107°
2026-04-29 04:25 37.46802 62.59672 39011 ft 523 kts 107°
2026-04-29 04:25 37.44845 62.68521 39012 ft 523 kts 107°
2026-04-29 04:26 37.42901 62.77256 39016 ft 523 kts 107°
2026-04-29 04:26 37.40943 62.86038 39016 ft 523 kts 107°
2026-04-29 04:27 37.38973 62.94836 39013 ft 523 kts 107°
2026-04-29 04:27 37.37004 63.03589 39008 ft 523 kts 107°
2026-04-29 04:28 37.35020 63.12383 39017 ft 523 kts 107°
2026-04-29 04:28 37.33037 63.21138 39014 ft 524 kts 107°
2026-04-29 04:29 37.31041 63.29917 39018 ft 524 kts 107°
2026-04-29 04:29 37.29044 63.38670 39020 ft 524 kts 107°
2026-04-29 04:30 37.27029 63.47460 39019 ft 525 kts 107°
2026-04-29 04:31 37.24014 63.60563 39016 ft 524 kts 107°
2026-04-29 04:31 37.21986 63.69328 39012 ft 525 kts 108°
2026-04-29 04:32 37.19954 63.78089 39009 ft 524 kts 108°
2026-04-29 04:32 37.17914 63.86844 39011 ft 525 kts 108°
2026-04-29 04:33 37.15868 63.95599 39010 ft 524 kts 108°
2026-04-29 04:33 37.13829 64.04284 39007 ft 524 kts 108°
2026-04-29 04:34 37.11764 64.13051 39005 ft 524 kts 108°
2026-04-29 04:34 37.09707 64.21752 39015 ft 524 kts 108°
2026-04-29 04:35 37.07642 64.30462 39004 ft 523 kts 108°
2026-04-29 04:35 37.05571 64.39163 39004 ft 523 kts 108°
2026-04-29 04:36 37.03490 64.47877 38996 ft 523 kts 108°
2026-04-29 04:36 37.01410 64.56558 39000 ft 524 kts 108°
2026-04-29 04:37 36.99309 64.65289 39001 ft 525 kts 108°
2026-04-29 04:37 36.97037 64.73899 38993 ft 523 kts 113°
2026-04-29 04:38 36.94004 64.82131 38997 ft 520 kts 121°
2026-04-29 04:38 36.90238 64.89812 38997 ft 518 kts 127°
2026-04-29 04:39 36.86268 64.97242 38996 ft 518 kts 127°
2026-04-29 04:39 36.82289 65.04704 38999 ft 518 kts 126°
2026-04-29 04:40 36.78296 65.12211 39010 ft 519 kts 126°
2026-04-29 04:40 36.74341 65.19644 39009 ft 519 kts 126°
2026-04-29 04:41 36.70338 65.27155 39014 ft 518 kts 126°
2026-04-29 04:41 36.66372 65.34576 39012 ft 518 kts 126°
2026-04-29 04:42 36.62366 65.42057 39021 ft 518 kts 126°
2026-04-29 04:42 36.58374 65.49494 39042 ft 519 kts 126°
2026-04-29 04:43 36.54372 65.56936 39047 ft 520 kts 126°
2026-04-29 04:43 36.50357 65.64384 39050 ft 520 kts 126°
2026-04-29 04:44 36.46325 65.71850 39056 ft 519 kts 127°
2026-04-29 04:44 36.42304 65.79275 39050 ft 520 kts 127°
2026-04-29 04:45 36.38282 65.86690 39063 ft 521 kts 127°
2026-04-29 04:45 36.34238 65.94132 39093 ft 521 kts 127°
2026-04-29 04:46 36.30208 66.01528 39103 ft 522 kts 127°
2026-04-29 04:46 36.26144 66.08977 39136 ft 522 kts 127°
2026-04-29 04:47 36.22074 66.16419 39162 ft 522 kts 127°
2026-04-29 04:47 36.18021 66.23783 39171 ft 522 kts 127°
2026-04-29 04:48 36.13928 66.31205 39172 ft 522 kts 127°
2026-04-29 04:48 36.09832 66.38622 39182 ft 522 kts 127°
2026-04-29 04:49 36.05755 66.45992 39187 ft 522 kts 127°
2026-04-29 04:49 36.01666 66.53372 39190 ft 521 kts 127°
2026-04-29 04:50 35.97552 66.60781 39216 ft 522 kts 127°
2026-04-29 04:50 35.93444 66.68164 39214 ft 521 kts 127°
2026-04-29 04:51 35.89340 66.75526 39251 ft 522 kts 127°
2026-04-29 04:51 35.85235 66.82873 39286 ft 523 kts 127°
2026-04-29 04:52 35.81113 66.90238 39288 ft 523 kts 127°
2026-04-29 04:52 35.76990 66.97596 39277 ft 523 kts 127°
2026-04-29 04:53 35.72865 67.04973 39291 ft 524 kts 127°
2026-04-29 04:53 35.68761 67.12304 39317 ft 524 kts 127°
2026-04-29 04:54 35.64620 67.19683 39352 ft 524 kts 127°
2026-04-29 04:54 35.60507 67.27002 39356 ft 525 kts 127°
2026-04-29 04:55 35.56359 67.34362 39362 ft 525 kts 127°
2026-04-29 04:55 35.52198 67.41734 39351 ft 525 kts 127°
2026-04-29 04:56 35.48048 67.49068 39361 ft 525 kts 127°
2026-04-29 04:56 35.43885 67.56415 39382 ft 524 kts 127°
2026-04-29 04:57 35.39727 67.63740 39388 ft 524 kts 127°
2026-04-29 04:57 35.35564 67.71054 39392 ft 526 kts 128°
2026-04-29 04:58 35.31381 67.78396 39412 ft 526 kts 128°
2026-04-29 04:58 35.27216 67.85704 39415 ft 527 kts 127°
2026-04-29 04:59 35.23084 67.93058 39402 ft 526 kts 127°
2026-04-29 04:59 35.18927 68.00457 39407 ft 527 kts 127°
2026-04-29 05:00 35.14786 68.07809 39402 ft 527 kts 127°
2026-04-29 05:00 35.10651 68.15130 39393 ft 527 kts 127°
2026-04-29 05:01 35.06486 68.22488 39398 ft 528 kts 127°
2026-04-29 05:01 35.02253 68.29836 39381 ft 528 kts 128°
2026-04-29 05:02 34.97986 68.37060 39367 ft 527 kts 128°
2026-04-29 05:02 34.93713 68.44291 39368 ft 528 kts 128°
2026-04-29 05:03 34.89423 68.51557 39340 ft 528 kts 128°
2026-04-29 05:03 34.85142 68.58804 39335 ft 529 kts 128°
2026-04-29 05:04 34.80849 68.66056 39333 ft 529 kts 128°
2026-04-29 05:04 34.76551 68.73300 39322 ft 530 kts 128°
2026-04-29 05:05 34.72228 68.80569 39314 ft 531 kts 128°
2026-04-29 05:05 34.67919 68.87809 39293 ft 531 kts 128°
2026-04-29 05:06 34.63605 68.95038 39284 ft 531 kts 128°
2026-04-29 05:06 34.59267 69.02299 39259 ft 532 kts 128°
2026-04-29 05:07 34.54924 69.09542 39253 ft 532 kts 128°
2026-04-29 05:07 34.50837 69.17007 39259 ft 535 kts 122°
2026-04-29 05:08 34.47342 69.25001 39258 ft 536 kts 118°
2026-04-29 05:08 34.43985 69.33006 39267 ft 536 kts 118°
2026-04-29 05:09 34.40597 69.41025 39280 ft 536 kts 118°
2026-04-29 05:09 34.37184 69.49042 39309 ft 536 kts 118°
2026-04-29 05:10 34.33771 69.57040 39313 ft 537 kts 118°
2026-04-29 05:10 34.30353 69.65035 39322 ft 536 kts 119°
2026-04-29 05:11 34.26927 69.73027 39305 ft 537 kts 119°
2026-04-29 05:11 34.23480 69.81039 39300 ft 538 kts 119°
2026-04-29 05:12 34.20052 69.89011 39297 ft 537 kts 119°
2026-04-29 05:12 34.16605 69.96981 39324 ft 536 kts 119°
2026-04-29 05:13 34.13113 70.04953 39335 ft 537 kts 119°
2026-04-29 05:13 34.09635 70.12881 39329 ft 536 kts 119°
2026-04-29 05:14 34.06166 70.20777 39309 ft 536 kts 119°
2026-04-29 05:14 34.02672 70.28729 39301 ft 537 kts 118°
2026-04-29 05:15 33.99181 70.36652 39281 ft 536 kts 118°
2026-04-29 05:15 33.95544 70.44422 39268 ft 536 kts 123°
2026-04-29 05:16 33.91186 70.51672 39228 ft 532 kts 132°
2026-04-29 05:16 33.86147 70.58167 39214 ft 529 kts 139°
2026-04-29 05:17 33.80787 70.64204 39191 ft 530 kts 140°
2026-04-29 05:17 33.75407 70.70266 39173 ft 530 kts 140°
2026-04-29 05:18 33.70043 70.76340 39158 ft 531 kts 140°
2026-04-29 05:18 33.64661 70.82432 39109 ft 531 kts 140°
2026-04-29 05:19 33.59330 70.88460 39069 ft 530 kts 140°
2026-04-29 05:19 33.54154 70.94811 39012 ft 535 kts 129°
2026-04-29 05:20 33.50579 71.02603 38979 ft 538 kts 109°
2026-04-29 05:20 33.49189 71.11269 38967 ft 533 kts 89°
2026-04-29 05:21 33.49625 71.20059 38961 ft 530 kts 81°
2026-04-29 05:21 33.50315 71.28854 38957 ft 531 kts 81°
2026-04-29 05:22 33.50921 71.37662 38956 ft 531 kts 82°
2026-04-29 05:22 33.51472 71.46434 38909 ft 531 kts 82°
2026-04-29 05:23 33.52010 71.55235 38876 ft 529 kts 82°
2026-04-29 05:23 33.52542 71.63975 38868 ft 529 kts 82°
2026-04-29 05:24 33.53068 71.72763 38869 ft 528 kts 83°
2026-04-29 05:24 33.52777 71.81544 38852 ft 532 kts 97°
2026-04-29 05:25 33.50854 71.90009 38838 ft 533 kts 112°
2026-04-29 05:25 33.47371 71.97856 38811 ft 533 kts 124°
2026-04-29 05:26 33.43292 72.05270 38805 ft 533 kts 124°
2026-04-29 05:26 33.39227 72.12651 38804 ft 534 kts 124°
2026-04-29 05:27 33.35181 72.20082 38814 ft 534 kts 124°
2026-04-29 05:27 33.29141 72.31212 38813 ft 535 kts 124°
2026-04-29 05:28 33.25107 72.38634 38822 ft 535 kts 124°
2026-04-29 05:28 33.21033 72.46107 38818 ft 535 kts 124°
2026-04-29 05:29 33.16986 72.53519 38821 ft 536 kts 124°
2026-04-29 05:29 33.12907 72.60970 38819 ft 536 kts 123°
2026-04-29 05:30 33.08844 72.68384 38807 ft 537 kts 124°
2026-04-29 05:30 33.04760 72.75822 38833 ft 536 kts 124°
2026-04-29 05:31 33.00662 72.83264 38833 ft 537 kts 124°
2026-04-29 05:31 32.96586 72.90655 38848 ft 537 kts 124°
2026-04-29 05:32 32.92487 72.98075 38852 ft 537 kts 124°
2026-04-29 05:32 32.88390 73.05482 38855 ft 537 kts 124°
2026-04-29 05:33 32.84297 73.12870 38859 ft 537 kts 124°
2026-04-29 05:33 32.80104 73.20206 38853 ft 536 kts 128°
2026-04-29 05:34 32.75339 73.26948 38846 ft 534 kts 136°
2026-04-29 05:34 32.69918 73.32923 38830 ft 531 kts 144°
2026-04-29 05:35 32.64119 73.38312 38813 ft 531 kts 145°
2026-04-29 05:35 32.58281 73.43687 38798 ft 531 kts 145°
2026-04-29 05:36 32.52466 73.49065 38791 ft 530 kts 144°
2026-04-29 05:36 32.46692 73.54408 38783 ft 531 kts 145°
2026-04-29 05:37 32.40865 73.59802 38778 ft 532 kts 145°
2026-04-29 05:37 32.35027 73.65197 38772 ft 532 kts 146°
2026-04-29 05:38 32.29199 73.70572 38769 ft 532 kts 145°
2026-04-29 05:38 32.23357 73.75949 38765 ft 532 kts 146°
2026-04-29 05:39 32.17533 73.81303 38763 ft 532 kts 145°
2026-04-29 05:39 32.11712 73.86642 38760 ft 534 kts 146°
2026-04-29 05:40 32.05843 73.92017 38759 ft 535 kts 145°
2026-04-29 05:40 31.99941 73.97417 38758 ft 535 kts 146°
2026-04-29 05:41 31.94078 74.02766 38758 ft 536 kts 145°
2026-04-29 05:41 31.88176 74.08144 38759 ft 535 kts 145°
2026-04-29 05:42 31.82297 74.13499 38760 ft 535 kts 145°
2026-04-29 05:42 31.76425 74.18831 38764 ft 535 kts 145°
2026-04-29 05:43 31.70531 74.24177 38765 ft 535 kts 145°
2026-04-29 05:43 31.64681 74.29479 38768 ft 534 kts 145°
2026-04-29 05:44 31.58774 74.34821 38769 ft 534 kts 145°
2026-04-29 05:44 31.52884 74.40136 38766 ft 535 kts 145°
2026-04-29 05:45 31.47016 74.45429 38763 ft 535 kts 145°
2026-04-29 05:45 31.41090 74.50768 38762 ft 535 kts 145°
2026-04-29 05:46 31.35221 74.56100 38764 ft 536 kts 143°
2026-04-29 05:46 31.29700 74.61912 38766 ft 538 kts 139°
2026-04-29 05:47 31.24238 74.67947 38765 ft 539 kts 139°
2026-04-29 05:47 31.18782 74.73962 38764 ft 539 kts 139°
2026-04-29 05:48 31.13364 74.79912 38762 ft 538 kts 139°
2026-04-29 05:48 31.07870 74.85924 38754 ft 539 kts 139°
2026-04-29 05:49 31.02443 74.91854 38747 ft 539 kts 139°
2026-04-29 05:49 30.96963 74.97835 38741 ft 540 kts 139°
2026-04-29 05:50 30.91489 75.03806 38744 ft 539 kts 139°
2026-04-29 05:50 30.85996 75.09782 38827 ft 539 kts 139°
2026-04-29 05:51 30.80792 75.16017 38754 ft 541 kts 131°
2026-04-29 05:51 30.76242 75.22974 38722 ft 542 kts 124°
2026-04-29 05:52 30.72110 75.30286 38744 ft 542 kts 123°
2026-04-29 05:52 30.67989 75.37595 38748 ft 541 kts 123°
2026-04-29 05:53 30.63855 75.44872 38749 ft 541 kts 123°
2026-04-29 05:53 30.59719 75.52117 38761 ft 541 kts 123°
2026-04-29 05:54 30.55563 75.59373 38765 ft 540 kts 123°
2026-04-29 05:54 30.51411 75.66612 38765 ft 539 kts 124°
2026-04-29 05:55 30.47252 75.73849 38767 ft 540 kts 124°
2026-04-29 05:55 30.43091 75.81074 38759 ft 540 kts 124°
2026-04-29 05:56 30.38925 75.88300 38757 ft 540 kts 124°
2026-04-29 05:56 30.34775 75.95480 38755 ft 541 kts 124°
2026-04-29 05:57 30.30581 76.02725 38756 ft 541 kts 124°
2026-04-29 05:57 30.26402 76.09934 38758 ft 541 kts 123°
2026-04-29 05:58 30.22214 76.17146 38760 ft 540 kts 124°
2026-04-29 05:58 30.18036 76.24318 38760 ft 540 kts 124°
2026-04-29 05:59 30.13869 76.31467 38764 ft 539 kts 123°
2026-04-29 05:59 30.09681 76.38637 38762 ft 540 kts 124°
2026-04-29 06:00 30.05496 76.45790 38758 ft 539 kts 123°
2026-04-29 06:00 30.01294 76.52959 38754 ft 538 kts 124°
2026-04-29 06:01 29.97109 76.60087 38752 ft 538 kts 124°
2026-04-29 06:01 29.92917 76.67210 38799 ft 538 kts 124°
2026-04-29 06:02 29.88706 76.74362 38755 ft 538 kts 124°
2026-04-29 06:02 29.84509 76.81473 38767 ft 538 kts 124°
2026-04-29 06:03 29.80292 76.88605 38751 ft 539 kts 124°
2026-04-29 06:03 29.76099 76.95681 38769 ft 539 kts 124°
2026-04-29 06:04 29.71875 77.02799 38770 ft 539 kts 124°
2026-04-29 06:04 29.67638 77.09925 38779 ft 538 kts 124°
2026-04-29 06:05 29.63438 77.16977 38778 ft 538 kts 124°
2026-04-29 06:05 29.59211 77.24065 38780 ft 538 kts 124°
2026-04-29 06:06 29.54997 77.31115 38779 ft 538 kts 124°
2026-04-29 06:06 29.50773 77.38173 38783 ft 536 kts 124°
2026-04-29 06:07 29.46549 77.45219 38786 ft 537 kts 124°
2026-04-29 06:07 29.42327 77.52251 38785 ft 536 kts 124°
2026-04-29 06:08 29.38095 77.59281 38780 ft 536 kts 123°
2026-04-29 06:08 29.33865 77.66303 38770 ft 535 kts 124°
2026-04-29 06:09 29.29620 77.73335 38746 ft 535 kts 124°
2026-04-29 06:09 29.25392 77.80331 38767 ft 535 kts 124°
2026-04-29 06:10 29.21183 77.87280 38759 ft 536 kts 124°
2026-04-29 06:10 29.16931 77.94287 38758 ft 534 kts 124°
2026-04-29 06:11 29.12704 78.01241 38754 ft 535 kts 124°
2026-04-29 06:11 29.08457 78.08218 38750 ft 534 kts 124°
2026-04-29 06:12 29.04229 78.15155 38764 ft 533 kts 124°
2026-04-29 06:12 28.99972 78.22123 38749 ft 532 kts 124°
2026-04-29 06:13 28.95051 78.30165 38758 ft 531 kts 124°
2026-04-29 06:13 28.91516 78.35929 38769 ft 530 kts 124°
2026-04-29 06:14 28.87275 78.42842 38768 ft 532 kts 124°
2026-04-29 06:14 28.83041 78.49726 38768 ft 531 kts 124°
2026-04-29 06:15 28.78821 78.56585 38774 ft 531 kts 124°
2026-04-29 06:15 28.74580 78.63454 38762 ft 530 kts 124°
2026-04-29 06:16 28.70332 78.70332 38772 ft 528 kts 124°
2026-04-29 06:16 28.66114 78.77145 38756 ft 528 kts 124°
2026-04-29 06:17 28.61891 78.83959 38763 ft 527 kts 124°
2026-04-29 06:17 28.57678 78.90746 38746 ft 526 kts 124°
2026-04-29 06:18 28.53453 78.97541 38750 ft 526 kts 124°
2026-04-29 06:18 28.49245 79.04295 38736 ft 526 kts 124°
2026-04-29 06:19 28.45030 79.11053 38732 ft 527 kts 125°
2026-04-29 06:19 28.40783 79.17851 38733 ft 528 kts 125°
2026-04-29 06:20 28.36539 79.24632 38736 ft 527 kts 125°
2026-04-29 06:20 28.32310 79.31375 38742 ft 526 kts 124°
2026-04-29 06:21 28.28051 79.38158 38742 ft 526 kts 124°
2026-04-29 06:21 28.23837 79.44867 38741 ft 526 kts 125°
2026-04-29 06:22 28.19583 79.51617 38734 ft 527 kts 124°
2026-04-29 06:22 28.15333 79.58357 38738 ft 526 kts 124°
2026-04-29 06:23 28.11083 79.65085 38738 ft 526 kts 125°
2026-04-29 06:23 28.06811 79.71834 38727 ft 527 kts 125°
2026-04-29 06:24 28.02550 79.78558 38720 ft 526 kts 125°
2026-04-29 06:24 27.98277 79.85288 38723 ft 526 kts 125°
2026-04-29 06:25 27.94041 79.91956 38722 ft 526 kts 125°
2026-04-29 06:25 27.89761 79.98677 38722 ft 526 kts 125°
2026-04-29 06:26 27.85475 80.05398 38715 ft 525 kts 125°
2026-04-29 06:26 27.81222 80.12054 38711 ft 525 kts 125°
2026-04-29 06:27 27.76953 80.18730 38711 ft 525 kts 126°
2026-04-29 06:27 27.72695 80.25376 38709 ft 524 kts 126°
2026-04-29 06:28 27.68403 80.32062 38707 ft 524 kts 125°
2026-04-29 06:28 27.64130 80.38715 38710 ft 523 kts 125°
2026-04-29 06:29 27.59864 80.45342 38709 ft 524 kts 125°
2026-04-29 06:29 27.55603 80.51954 38704 ft 523 kts 125°
2026-04-29 06:30 27.49222 80.61836 38690 ft 522 kts 125°
2026-04-29 06:31 27.44955 80.68433 38691 ft 521 kts 126°
2026-04-29 06:31 27.40686 80.75019 38689 ft 521 kts 126°
2026-04-29 06:32 27.36431 80.81576 38690 ft 521 kts 126°
2026-04-29 06:32 27.32150 80.88164 38690 ft 522 kts 126°
2026-04-29 06:33 27.27881 80.94724 38695 ft 521 kts 126°
2026-04-29 06:33 27.23612 81.01275 38694 ft 520 kts 126°
2026-04-29 06:34 27.19337 81.07828 38715 ft 520 kts 126°
2026-04-29 06:34 27.15070 81.14356 38702 ft 519 kts 126°
2026-04-29 06:35 27.10822 81.20849 38698 ft 518 kts 126°
2026-04-29 06:35 27.06552 81.27373 38700 ft 518 kts 126°
2026-04-29 06:36 27.02299 81.33855 38700 ft 518 kts 126°
2026-04-29 06:36 26.98476 81.40644 38690 ft 515 kts 112°
2026-04-29 06:37 26.96536 81.48301 38689 ft 509 kts 94°
2026-04-29 06:37 26.96693 81.56091 38692 ft 500 kts 76°
2026-04-29 06:38 26.98563 81.63514 38710 ft 495 kts 68°
2026-04-29 06:38 27.00747 81.70818 38691 ft 494 kts 68°
2026-04-29 06:39 27.02871 81.78108 38703 ft 493 kts 69°
2026-04-29 06:39 27.04962 81.85418 38695 ft 492 kts 69°
2026-04-29 06:40 27.07033 81.92703 38696 ft 491 kts 69°
2026-04-29 06:40 27.09103 81.99995 38686 ft 491 kts 69°
2026-04-29 06:41 27.11160 82.07269 38689 ft 492 kts 69°
2026-04-29 06:41 27.12602 82.14778 38692 ft 496 kts 84°
2026-04-29 06:42 27.12157 82.22508 38684 ft 500 kts 101°
2026-04-29 06:42 27.09833 82.29804 38695 ft 502 kts 117°
2026-04-29 06:43 27.06307 82.36574 38686 ft 502 kts 121°
2026-04-29 06:43 27.02720 82.43263 38679 ft 502 kts 120°
2026-04-29 06:44 26.98559 82.51113 38669 ft 501 kts 120°
2026-04-29 06:44 26.95613 82.56696 38676 ft 501 kts 120°
2026-04-29 06:45 26.92072 82.63408 38675 ft 501 kts 120°
2026-04-29 06:45 26.88527 82.70120 38682 ft 500 kts 120°
2026-04-29 06:46 26.85000 82.76790 38673 ft 500 kts 120°
2026-04-29 06:46 26.81449 82.83497 38677 ft 499 kts 120°
2026-04-29 06:47 26.77921 82.90152 38687 ft 500 kts 121°
2026-04-29 06:47 26.74383 82.96815 38689 ft 500 kts 121°
2026-04-29 06:48 26.70825 83.03500 38691 ft 499 kts 121°
2026-04-29 06:48 26.67285 83.10145 38684 ft 499 kts 121°
2026-04-29 06:49 26.63746 83.16775 38691 ft 499 kts 121°
2026-04-29 06:49 26.60188 83.23435 38688 ft 498 kts 121°
2026-04-29 06:50 26.56065 83.31140 38693 ft 499 kts 121°
2026-04-29 06:50 26.53082 83.36710 38694 ft 498 kts 121°
2026-04-29 06:51 26.48948 83.44412 38685 ft 498 kts 121°
2026-04-29 06:51 26.45984 83.49927 38679 ft 498 kts 121°
2026-04-29 06:52 26.41841 83.57626 38668 ft 499 kts 121°
2026-04-29 06:52 26.38864 83.63150 38672 ft 498 kts 121°
2026-04-29 06:53 26.35283 83.69795 38675 ft 499 kts 122°
2026-04-29 06:53 26.31118 83.77511 38673 ft 498 kts 121°
2026-04-29 06:54 26.28433 83.83176 38671 ft 498 kts 115°
2026-04-29 06:54 26.25894 83.90311 38676 ft 498 kts 108°
2026-04-29 06:55 26.24142 83.97731 38677 ft 497 kts 101°
2026-04-29 06:55 26.22897 84.05326 38673 ft 497 kts 100°
2026-04-29 06:56 26.21683 84.12856 38671 ft 497 kts 100°
2026-04-29 06:56 26.20439 84.20445 38684 ft 498 kts 100°
2026-04-29 06:57 26.19192 84.27981 38694 ft 498 kts 100°
2026-04-29 06:57 26.17726 84.36784 38695 ft 497 kts 100°
2026-04-29 06:58 26.16462 84.44349 38691 ft 497 kts 100°
2026-04-29 06:58 26.15202 84.51864 38684 ft 496 kts 100°
2026-04-29 06:59 26.13938 84.59384 38686 ft 496 kts 100°
2026-04-29 06:59 26.12881 84.65658 38682 ft 496 kts 101°
2026-04-29 07:00 26.11611 84.73174 38687 ft 495 kts 101°
2026-04-29 07:00 26.10333 84.80699 38687 ft 495 kts 101°
2026-04-29 07:01 26.08842 84.89463 38695 ft 495 kts 101°
2026-04-29 07:01 26.07571 84.96912 38684 ft 493 kts 101°
2026-04-29 07:02 26.06292 85.04386 38692 ft 493 kts 101°
2026-04-29 07:02 26.05251 85.10598 38695 ft 492 kts 100°
2026-04-29 07:03 26.04033 85.18068 38707 ft 492 kts 100°
2026-04-29 07:03 26.02603 85.26815 38705 ft 493 kts 100°
2026-04-29 07:04 26.01582 85.33032 38706 ft 493 kts 100°
2026-04-29 07:04 26.00348 85.40513 38701 ft 493 kts 101°
2026-04-29 07:05 25.98904 85.49238 38710 ft 492 kts 101°
2026-04-29 07:05 25.97669 85.56666 38701 ft 492 kts 101°
2026-04-29 07:06 25.96427 85.64120 38706 ft 492 kts 101°
2026-04-29 07:06 25.95392 85.70314 38706 ft 491 kts 101°
2026-04-29 07:07 25.93938 85.78986 38704 ft 490 kts 101°
2026-04-29 07:07 25.92684 85.86436 38700 ft 490 kts 101°
2026-04-29 07:08 25.91436 85.93832 38707 ft 490 kts 101°
2026-04-29 07:08 25.90175 86.01277 38703 ft 489 kts 101°
2026-04-29 07:09 25.88918 86.08678 38699 ft 489 kts 101°
2026-04-29 07:09 25.87657 86.16087 38709 ft 489 kts 101°
2026-04-29 07:10 25.86397 86.23476 38710 ft 489 kts 101°
2026-04-29 07:10 25.85345 86.29619 38715 ft 489 kts 101°
2026-04-29 07:11 25.84494 86.37062 38720 ft 489 kts 94°
2026-04-29 07:11 25.84566 86.45899 38718 ft 491 kts 85°
2026-04-29 07:12 25.85540 86.53333 38728 ft 491 kts 79°
2026-04-29 07:12 25.86663 86.59507 38733 ft 491 kts 78°
2026-04-29 07:13 25.88245 86.68166 38740 ft 491 kts 79°
2026-04-29 07:13 25.89356 86.74353 38747 ft 490 kts 79°
2026-04-29 07:14 25.90899 86.83005 38748 ft 489 kts 79°
2026-04-29 07:14 25.92211 86.90392 38752 ft 490 kts 79°
2026-04-29 07:15 25.93520 86.97787 38758 ft 489 kts 79°
2026-04-29 07:15 25.94825 87.05178 38769 ft 489 kts 79°
2026-04-29 07:16 25.95908 87.11333 38774 ft 489 kts 79°
2026-04-29 07:16 25.97418 87.19949 38777 ft 488 kts 79°
2026-04-29 07:17 25.98498 87.26143 38776 ft 489 kts 79°
2026-04-29 07:17 25.99784 87.33540 38768 ft 488 kts 79°
2026-04-29 07:18 26.01270 87.42111 38768 ft 487 kts 79°
2026-04-29 07:18 26.02538 87.49480 38784 ft 487 kts 80°
2026-04-29 07:19 26.03805 87.56880 38778 ft 485 kts 80°
2026-04-29 07:19 26.05059 87.64204 38808 ft 486 kts 80°
2026-04-29 07:20 26.06315 87.71562 38794 ft 486 kts 81°
2026-04-29 07:20 26.07565 87.78916 38809 ft 484 kts 81°
2026-04-29 07:21 26.09081 87.86213 38818 ft 485 kts 71°
2026-04-29 07:21 26.11537 87.91818 38818 ft 486 kts 58°
2026-04-29 07:21 26.14331 87.95784 38826 ft 488 kts 47°
2026-04-29 07:22 26.16798 87.98307 38824 ft 489 kts 38°
2026-04-29 07:22 26.22532 88.02400 38825 ft 488 kts 30°
2026-04-29 07:23 26.28425 88.06161 38841 ft 488 kts 30°
2026-04-29 07:23 26.34317 88.09965 38839 ft 488 kts 30°
2026-04-29 07:24 26.40164 88.13778 38835 ft 489 kts 30°
2026-04-29 07:24 26.46047 88.17628 38846 ft 488 kts 30°
2026-04-29 07:25 26.51918 88.21478 38864 ft 489 kts 31°
2026-04-29 07:25 26.57781 88.25328 38875 ft 490 kts 31°
2026-04-29 07:26 26.63571 88.29383 38881 ft 491 kts 37°
2026-04-29 07:26 26.68704 88.34341 38882 ft 490 kts 47°
2026-04-29 07:27 26.72362 88.39181 38891 ft 488 kts 55°
2026-04-29 07:27 26.76597 88.46624 38896 ft 486 kts 60°
2026-04-29 07:28 26.80079 88.53075 38902 ft 486 kts 60°
2026-04-29 07:28 26.83015 88.58479 38915 ft 486 kts 60°
2026-04-29 07:29 26.87119 88.66007 38938 ft 485 kts 60°
2026-04-29 07:29 26.90620 88.72430 38943 ft 484 kts 60°
2026-04-29 07:30 26.94109 88.78841 38954 ft 484 kts 60°
2026-04-29 07:30 26.97594 88.85255 38974 ft 483 kts 60°
2026-04-29 07:31 27.02555 88.95048 39003 ft 481 kts 63°
2026-04-29 07:31 27.05791 89.01556 39082 ft 482 kts 63°
2026-04-29 07:32 27.09060 89.08121 39109 ft 481 kts 63°
2026-04-29 07:32 27.12328 89.14683 39167 ft 481 kts 63°
2026-04-29 07:33 27.15585 89.21237 39289 ft 483 kts 63°
2026-04-29 07:33 27.17032 89.24634 39332 ft 480 kts 75°
2026-04-29 07:33 27.17640 89.28271 39384 ft 477 kts 86°
2026-04-29 07:34 27.18144 89.35701 39332 ft 477 kts 88°
2026-04-29 07:34 27.18705 89.43123 39312 ft 480 kts 83°
2026-04-29 07:35 27.19695 89.46709 39287 ft 487 kts 64°
2026-04-29 07:35 27.20915 89.48837 39287 ft 489 kts 51°
2026-04-29 07:35 27.24376 89.52031 39291 ft 491 kts 28°
2026-04-29 07:35 27.27453 89.53804 39332 ft 492 kts 26°
2026-04-29 07:36 27.30635 89.55180 39302 ft 492 kts 10°
2026-04-29 07:36 27.34020 89.55388 39329 ft 488 kts 351°
2026-04-29 07:36 27.37277 89.54335 39341 ft 483 kts 330°
2026-04-29 07:36 27.39971 89.52175 39360 ft 476 kts 311°
2026-04-29 07:37 27.42139 89.49375 39216 ft 477 kts 308°
2026-04-29 07:37 27.44509 89.46810 37963 ft 484 kts 318°
2026-04-29 07:37 27.47297 89.44643 36171 ft 490 kts 329°
2026-04-29 07:37 27.50396 89.43125 34271 ft 494 kts 341°
2026-04-29 07:38 27.52613 89.42511 33141 ft 492 kts 349°
2026-04-29 07:38 27.57093 89.42290 31093 ft 486 kts
2026-04-29 07:38 27.60383 89.43001 29568 ft 481 kts 17°
2026-04-29 07:38 27.63403 89.44408 28078 ft 474 kts 28°
2026-04-29 07:39 27.66100 89.46495 26695 ft 464 kts 41°
2026-04-29 07:39 27.68223 89.49110 25736 ft 445 kts 56°
2026-04-29 07:39 27.69644 89.52097 25033 ft 422 kts 71°
2026-04-29 07:39 27.70243 89.55183 24442 ft 399 kts 89°
2026-04-29 07:40 27.69974 89.58185 23936 ft 375 kts 109°
2026-04-29 07:40 27.69074 89.60873 23549 ft 353 kts 116°
2026-04-29 07:40 27.68098 89.63316 23214 ft 335 kts 117°
2026-04-29 07:40 27.67151 89.65627 22836 ft 320 kts 118°
2026-04-29 07:41 27.66226 89.67877 22272 ft 314 kts 119°
2026-04-29 07:41 27.65495 89.69292 21845 ft 308 kts 133°
2026-04-29 07:41 27.63170 89.71124 21330 ft 320 kts 167°
2026-04-29 07:41 27.60973 89.71334 21626 ft 317 kts 191°
2026-04-29 07:42 27.58932 89.70541 22034 ft 313 kts 214°
2026-04-29 07:42 27.57342 89.68871 22446 ft 312 kts 237°
2026-04-29 07:42 27.56513 89.66641 22858 ft 313 kts 259°
2026-04-29 07:42 27.56566 89.64199 23289 ft 320 kts 282°
2026-04-29 07:43 27.57514 89.61903 23725 ft 336 kts 301°
2026-04-29 07:43 27.58960 89.59695 23637 ft 364 kts 299°
2026-04-29 07:43 27.59977 89.56992 23435 ft 388 kts 281°
2026-04-29 07:43 27.60140 89.53914 23203 ft 412 kts 263°
2026-04-29 07:44 27.59524 89.50639 22974 ft 436 kts 253°
2026-04-29 07:44 27.58386 89.47411 22724 ft 458 kts 242°
2026-04-29 07:44 27.56635 89.44371 22777 ft 469 kts 234°
2026-04-29 07:44 27.54599 89.41473 23192 ft 470 kts 228°
2026-04-29 07:45 27.52177 89.39024 23529 ft 473 kts 219°
2026-04-29 07:45 27.49541 89.36809 23850 ft 476 kts 217°
2026-04-29 07:45 27.46827 89.34621 24173 ft 478 kts 216°
2026-04-29 07:45 27.44077 89.32553 24477 ft 480 kts 210°
2026-04-29 07:46 27.40988 89.31029 24727 ft 485 kts 199°
2026-04-29 07:46 27.37708 89.30087 25017 ft 487 kts 192°
2026-04-29 07:46 27.34358 89.29536 24467 ft 496 kts 188°
2026-04-29 07:46 27.30953 89.29132 23329 ft 488 kts 187°
2026-04-29 07:47 27.27615 89.28938 22820 ft 471 kts 184°
2026-04-29 07:47 27.24455 89.29139 21551 ft 457 kts 172°
2026-04-29 07:47 27.21500 89.30122 20206 ft 431 kts 162°
2026-04-29 07:47 27.18841 89.31348 19430 ft 395 kts 158°
2026-04-29 07:48 27.16510 89.32708 18660 ft 369 kts 149°
2026-04-29 07:48 27.14724 89.34701 17807 ft 358 kts 124°
2026-04-29 07:48 27.13909 89.37246 16868 ft 353 kts 96°
2026-04-29 07:48 27.14175 89.39933 15871 ft 351 kts 70°
2026-04-29 07:49 27.15401 89.42315 15039 ft 356 kts 49°
2026-04-29 07:49 27.17180 89.44177 14571 ft 349 kts 37°
2026-04-29 07:49 27.19102 89.45776 14484 ft 336 kts 36°
2026-04-29 07:49 27.20716 89.47585 14423 ft 321 kts 51°
2026-04-29 07:50 27.22178 89.49419 14280 ft 308 kts 36°
2026-04-29 07:50 27.24020 89.50507 14141 ft 295 kts 18°
2026-04-29 07:50 27.25900 89.51366 13874 ft 292 kts 22°
2026-04-29 07:50 27.27702 89.52371 13547 ft 291 kts 29°
2026-04-29 07:51 27.29462 89.53577 13130 ft 292 kts 31°
2026-04-29 07:51 27.31222 89.54647 12739 ft 290 kts 16°
2026-04-29 07:51 27.33158 89.54967 12285 ft 276 kts 355°
2026-04-29 07:51 27.35035 89.54691 11792 ft 266 kts 347°
2026-04-29 07:52 27.36791 89.54392 11667 ft 236 kts 357°
2026-04-29 07:52 27.37991 89.53886 12222 ft 161 kts 275°
2026-04-29 07:52 27.37529 89.52892 11462 ft 177 kts 192°
2026-04-29 07:52 27.36472 89.53307 11090 ft 173 kts 137°
2026-04-29 07:53 27.35964 89.54607 10177 ft 201 kts 105°
2026-04-29 07:53 27.35296 89.55856 9886 ft 179 kts 151°
2026-04-29 07:53 27.34160 89.55967 9642 ft 165 kts 199°
2026-04-29 07:53 27.33250 89.55218 9303 ft 164 kts 231°
2026-04-29 07:54 27.32870 89.54087 9051 ft 163 kts 263°
2026-04-29 07:54 27.33035 89.52697 8040 ft 194 kts 281°
2026-04-29 07:54 27.33240 89.51220 7479 ft 191 kts 265°
2026-04-29 07:54 27.32891 89.49918 7480 ft 159 kts 253°
2026-04-29 07:55 27.32897 89.48724 7559 ft 153 kts 295°
2026-04-29 07:55 27.33532 89.47768 7532 ft 152 kts 319°
2026-04-29 07:55 27.34370 89.47028 7441 ft 153 kts 326°
2026-04-29 07:55 27.35280 89.46410 7522 ft 152 kts 337°
2026-04-29 07:56 27.36293 89.46081 7656 ft 152 kts 351°
2026-04-29 07:56 27.37316 89.45742 7462 ft 152 kts 334°
2026-04-29 07:56 27.38146 89.45026 7521 ft 152 kts 303°
2026-04-29 07:56 27.38449 89.43888 7521 ft 151 kts 301°
2026-04-29 07:57 27.39243 89.43157 7476 ft 150 kts 335°
2026-04-29 07:57 27.40081 89.42619 7433 ft 106 kts 338°
2026-04-29 07:57 27.40485 89.42371 7451 ft 31 kts 329°
2026-04-29 07:57 27.40588 89.42306 7456 ft 6 kts 328°
2026-04-29 07:58 27.40591 89.42261 7456 ft 7 kts 253°
2026-04-29 07:58 27.40577 89.42198 7457 ft 9 kts 267°
2026-04-29 07:58 27.40563 89.42144 7458 ft 3 kts 243°
2026-04-29 07:58 27.40561 89.42139 7458 ft 0 kts 241°